TimePDT,TemperatureF,Dew PointF,Humidity,Sea Level PressureIn,VisibilityMPH,Wind Direction,Wind SpeedMPH,Gust SpeedMPH,PrecipitationIn,Events,Conditions,WindDirDegrees,DateUTC
12:53 AM,70.0,57.9,65,29.76,10.0,East,4.6,-,N/A,,Unknown,80,2013-09-17 07:53:00
1:53 AM,70.0,57.0,63,29.77,10.0,Calm,Calm,-,N/A,,Clear,0,2013-09-17 08:53:00
2:53 AM,69.1,55.9,63,29.75,10.0,Calm,Calm,-,N/A,,Clear,0,2013-09-17 09:53:00
3:53 AM,68.0,57.0,68,29.75,10.0,Calm,Calm,-,N/A,,Clear,0,2013-09-17 10:53:00
4:53 AM,66.0,55.0,68,29.76,10.0,Calm,Calm,-,N/A,,Clear,0,2013-09-17 11:53:00
5:53 AM,64.9,52.0,63,29.75,10.0,Calm,Calm,-,N/A,,Clear,0,2013-09-17 12:53:00
6:53 AM,64.0,50.0,60,29.77,10.0,Calm,Calm,-,N/A,,Clear,0,2013-09-17 13:53:00
7:53 AM,66.9,55.9,68,29.78,10.0,Calm,Calm,-,N/A,,Clear,0,2013-09-17 14:53:00
8:53 AM,70.0,57.9,65,29.78,10.0,SE,3.5,-,N/A,,Clear,140,2013-09-17 15:53:00
9:53 AM,73.9,57.0,55,29.78,10.0,Variable,4.6,-,N/A,,Clear,0,2013-09-17 16:53:00
10:53 AM,75.9,57.9,54,29.78,10.0,East,6.9,-,N/A,,Clear,100,2013-09-17 17:53:00
11:53 AM,78.1,55.9,46,29.76,9.0,Variable,6.9,-,N/A,,Clear,0,2013-09-17 18:53:00
12:53 PM,82.0,57.0,42,29.75,10.0,ESE,10.4,-,N/A,,Clear,110,2013-09-17 19:53:00
1:53 PM,84.0,53.1,34,29.72,10.0,SE,12.7,-,N/A,,Clear,140,2013-09-17 20:53:00
2:53 PM,82.9,57.9,42,29.70,9.0,South,10.4,-,N/A,,Clear,190,2013-09-17 21:53:00
3:53 PM,82.0,57.0,42,29.70,9.0,SSW,11.5,-,N/A,,Clear,200,2013-09-17 22:53:00
4:53 PM,80.1,57.0,45,29.69,10.0,South,8.1,-,N/A,,Clear,180,2013-09-17 23:53:00
5:53 PM,78.1,57.0,48,29.69,10.0,Variable,5.8,-,N/A,,Clear,0,2013-09-18 00:53:00
6:53 PM,75.0,57.9,55,29.70,10.0,ESE,9.2,-,N/A,,Clear,120,2013-09-18 01:53:00
7:53 PM,71.1,57.9,63,29.71,10.0,ESE,8.1,-,N/A,,Clear,120,2013-09-18 02:53:00
8:53 PM,70.0,57.9,65,29.73,10.0,East,6.9,-,N/A,,Clear,90,2013-09-18 03:53:00
9:53 PM,69.1,59.0,70,29.73,9.0,East,4.6,-,N/A,,Clear,80,2013-09-18 04:53:00
10:53 PM,68.0,59.0,73,29.73,8.0,ESE,6.9,-,N/A,,Clear,120,2013-09-18 05:53:00
11:53 PM,66.0,57.9,75,29.74,6.0,ESE,8.1,-,N/A,,Haze,110,2013-09-18 06:53:00